COSMOS 2251 DEB, 33761

Orbit data source: Space-Track

COSMOS 2251 DEB, 33761 is space debris in LEO originally from a launch on Wed, 16 Jun 1993 UTC launched from the Plesetsk Missile And Space Complex (PKMTR). The debris from Iridium 33, an American commercial communications satellite, has been tracked extensively since its accidental collision with the defunct Russian satellite Cosmos 2251 in 2009. This event, occurring at high speed in low Earth orbit (LEO), generated thousands of pieces of space debris, significantly increasing the risk of further collisions. The Iridium 33 debris cloud has impacted space traffic management and orbital debris mitigation strategies, making it a subject of ongoing study in space situational awareness.

Loading next visibility...
Identifier
33761, 1993-036J
Orbit
LEO
Country
Flag of CISCIS
Related business
Manufacturer
Unknown
Mission
Spacecraft
Bus & Motor
Unknown
Mass
Unknown
Launch date (UTC)
1993-06-16 (33 years ago)
Launch vehicle
Unknown
Launch site
Plesetsk Missile And Space Complex (PKMTR)
Object type
Payload
Rocket body
Debris
Shape & HBR
Unknown shape, 0.1 m
Radar Cross Section
Medium (>0.1 m² and <1 m²)

Expand to show TLE details & history
Last TLE update: 13 hours ago

TLE from 13 hours ago
0 COSMOS 2251 DEB
1 33761U 93036J   26177.95829994  .00000801  00000-0  24620-3 0  9995
2 33761  74.0353 247.9297 0024050 284.8809 254.9823 14.43064399910640
Epoch: 2026-06-26T22:59Z
TLE epoch observation values (Epoch: 2026-06-26T22:59:57.114Z)
Latitude
0.27782°
Longitude
167.78333°
Altitude
755.456 km
Speed
7.475 km/s
True Right ascension
04h 31m 24s
True Declination
0° 16' 34"
Sunlit
Object was in daylight at epoch
Visualization orbit readout
Latitude
Unknown
Longitude
Unknown
Altitude
Unknown
Speed
Unknown
Apparent Right ascension
Unknown
Apparent Declination
Unknown
Sunlit
N/A
Visualization observer readout
Local Sidereal Time
23:03:10
Azimuth
Unknown
Elevation
Unknown
Doppler factor
Unknown
Orbital elements
Apogee altitude
763.141 km
Perigee altitude
728.874 km
Semi-major axis
7,124.145 km
Eccentricity
0.00241
Inclination
74.0353°
RAAN
247.9297°
Arg. of periapsis
284.8809°
True anomaly
254.71633°
Mean anomaly
254.9823°
Eccentric anomaly
254.84929°
Mean motion
3.60948 °/min
Orbital period
99.74 mins
BSTAR
0.0002462
Loading maneuver chart data...
Computing Atmospheric mass density...

Documentation

Showing up to 5 results
|